Lapse_Rate
5.9 6.0 6.4 6.2 6.2 6.5 7.2 8.1 8.2 8.3 8.2 8.5 8.4 8.2 8.0 7.9 7.7 7.7 7.5 7.7 7.9 7.6 7.6 7.5 7.3 7.1 6.7 6.5 6.3 6.3 6.5 6.7 6.9 7.0 7.0 6.9 6.7 6.6 6.7 6.8 6.8 6.7 6.8 6.8 6.5 6.5 6.3 6.2 6.0
5.8 6.1 6.2 6.3 6.3 6.5 7.7 8.5 7.9 7.9 8.2 8.4 8.4 8.0 8.0 7.9 7.6 7.6 7.6 7.6 7.9 7.7 7.6 7.6 7.5 7.2 6.8 6.6 6.4 6.4 6.7 6.9 6.9 7.1 7.1 6.8 6.7 6.7 6.8 6.8 6.7 6.7 6.8 6.6 6.4 6.4 6.3 6.1 6.0
5.7 6.2 6.1 6.2 6.3 6.9 7.9 7.5 7.3 8.2 8.2 8.2 8.2 7.9 7.7 7.8 7.8 7.7 7.6 7.6 7.8 7.8 7.6 7.5 7.6 7.3 7.0 6.7 6.6 6.7 7.0 7.2 7.2 7.2 7.1 6.8 6.8 6.8 6.7 6.6 6.5 6.6 6.6 6.5 6.5 6.4 6.3 6.3 6.1
5.9 6.0 6.1 6.1 6.5 7.3 7.5 7.8 7.5 7.9 8.0 8.0 7.9 7.8 7.8 7.9 7.9 7.8 7.8 7.7 7.6 7.6 7.6 7.5 7.5 7.3 7.1 6.8 6.7 6.7 7.0 7.2 7.2 7.1 7.0 6.9 6.9 6.7 6.5 6.4 6.5 6.6 6.5 6.4 6.3 6.4 6.3 6.4 6.2
5.7 5.8 6.0 6.2 6.8 7.2 7.8 7.3 7.7 7.9 8.0 7.8 7.6 7.7 8.0 8.0 7.8 7.7 7.6 7.6 7.5 7.5 7.4 7.6 7.6 7.4 7.1 6.8 6.7 6.7 7.0 7.2 7.2 7.1 7.1 6.8 6.7 6.5 6.5 6.5 6.5 6.5 6.4 6.3 6.3 6.4 6.3 6.2 6.1
5.6 5.7 5.8 6.2 6.8 7.1 7.3 7.7 7.8 7.8 7.8 7.8 7.4 7.5 7.8 7.9 7.6 7.6 7.4 7.5 7.4 7.4 7.2 7.4 7.4 7.3 7.2 7.0 6.8 6.9 7.1 7.1 7.1 7.2 7.0 6.7 6.6 6.5 6.4 6.5 6.4 6.5 6.6 6.5 6.4 6.3 6.2 5.9 5.9
5.5 5.6 6.0 6.4 7.3 7.9 8.2 7.9 8.1 7.8 8.0 7.6 7.4 7.3 7.6 7.8 7.7 7.5 7.4 7.3 7.2 7.3 7.1 7.1 7.2 7.3 7.3 7.1 6.9 7.0 7.1 7.1 7.0 7.0 6.8 6.7 6.6 6.4 6.4 6.5 6.6 6.6 6.6 6.6 6.4 6.4 6.2 6.0 6.0
5.5 5.4 5.9 6.6 7.4 8.1 7.8 7.7 7.7 8.3 8.1 7.5 7.8 7.5 7.9 7.6 7.6 7.4 7.3 7.2 7.1 7.2 7.2 7.0 7.1 7.2 7.2 7.2 7.1 7.0 6.9 6.9 6.9 6.8 6.7 6.6 6.5 6.5 6.3 6.4 6.5 6.6 6.6 6.4 6.3 6.3 6.2 6.1 5.9
5.2 5.3 5.8 6.8 7.1 6.9 6.8 7.7 7.6 7.6 7.6 7.5 7.5 7.7 7.7 7.5 7.4 7.3 7.2 7.2 7.2 7.0 7.1 7.2 7.0 7.0 7.1 7.2 7.2 7.0 6.9 6.8 6.8 6.6 6.6 6.4 6.5 6.3 6.1 6.2 6.4 6.5 6.4 6.2 6.3 6.4 6.3 6.1 5.9
5.2 5.4 5.8 6.7 6.6 6.6 6.3 6.7 7.3 7.4 7.3 7.4 7.2 7.5 7.4 7.2 7.4 7.2 7.1 7.2 7.2 7.1 6.9 7.0 7.1 7.0 6.9 6.7 6.9 6.9 7.0 6.9 6.7 6.5 6.3 6.1 6.2 6.1 6.1 6.0 6.1 6.1 6.1 6.0 6.1 6.1 6.1 6.0 6.0
5.4 5.5 5.9 6.7 6.4 6.1 5.8 6.7 7.3 7.4 7.8 7.3 7.0 7.3 7.4 7.3 7.3 7.0 6.9 7.0 7.1 6.9 6.9 6.8 6.8 6.8 6.8 6.8 6.6 6.7 6.8 6.8 6.7 6.4 6.1 6.1 6.1 6.1 5.9 5.8 5.8 5.8 5.8 5.8 5.9 6.0 5.9 5.9 5.8
5.1 5.3 5.8 6.6 6.2 6.1 6.1 7.0 7.2 7.3 7.7 7.2 7.0 7.1 7.4 7.5 7.1 7.0 6.8 6.9 7.0 6.8 6.7 6.7 6.5 6.5 6.5 6.6 6.6 6.5 6.6 6.5 6.4 6.2 5.8 5.7 5.8 5.8 5.8 5.8 5.6 5.4 5.5 5.6 5.7 5.8 5.7 5.7 5.8
4.9 5.4 5.4 5.9 6.3 6.2 6.0 6.7 7.1 7.4 7.4 7.2 7.2 7.1 7.1 7.2 7.2 6.9 6.8 6.8 6.9 6.6 6.5 6.4 6.4 6.3 6.4 6.4 6.3 6.5 6.4 6.2 6.2 6.0 5.8 5.7 5.5 5.5 5.5 5.4 5.3 5.3 5.2 5.5 5.6 5.6 5.7 5.7 5.7
5.2 5.4 5.4 5.7 6.0 6.0 5.9 6.5 6.4 7.6 7.6 7.2 7.2 7.0 7.0 7.0 7.1 6.9 6.8 6.7 6.7 6.5 6.4 6.3 6.3 6.2 6.1 6.1 6.0 6.1 6.1 6.1 5.9 5.8 5.7 5.7 5.6 5.5 5.4 5.2 5.2 5.4 5.5 5.6 5.8 5.8 5.6 5.7 5.6
5.0 5.4 5.6 6.0 6.2 6.2 6.1 6.2 7.3 7.4 7.1 7.1 6.9 7.0 6.9 6.9 6.9 6.9 6.7 6.7 6.7 6.6 6.5 6.5 6.2 6.1 6.1 5.7 5.5 5.5 5.5 5.5 5.4 5.3 5.3 5.2 5.1 5.0 4.9 5.0 5.1 5.1 5.3 5.4 5.6 5.6 5.6 5.6 5.5
5.4 5.2 5.6 6.9 6.3 6.4 5.9 6.5 7.4 7.2 7.4 7.4 7.2 6.9 6.9 6.5 6.3 6.5 6.7 6.9 7.0 6.8 6.6 6.4 6.4 6.2 5.8 5.7 5.4 5.4 5.3 5.3 5.2 4.9 4.8 4.7 4.5 4.4 4.3 4.5 4.7 4.7 4.9 5.0 5.1 5.2 5.3 5.4 5.5
5.4 5.6 6.0 6.4 6.3 6.2 6.0 6.5 6.9 6.7 6.6 6.9 7.2 7.1 6.3 6.2 6.5 6.8 7.0 7.0 6.8 6.8 6.5 6.3 6.2 6.2 5.9 5.5 5.3 5.2 5.1 5.0 4.8 4.8 4.5 4.3 4.1 4.1 4.1 4.1 4.2 4.2 4.3 4.5 4.7 5.1 5.2 5.4 5.4
6.0 5.5 5.8 6.3 6.4 6.3 6.1 6.3 6.7 6.7 6.5 6.8 7.0 6.8 7.0 7.0 6.8 6.9 6.7 6.6 6.6 6.7 6.7 6.6 6.5 6.3 6.3 5.9 5.4 5.0 4.9 4.9 4.7 4.6 4.5 4.3 4.2 4.0 4.0 4.1 4.1 4.1 4.1 4.3 4.4 4.6 4.7 4.9 5.1
5.7 5.6 6.0 6.2 6.5 6.2 6.2 6.1 6.4 6.3 6.4 6.7 7.0 7.1 6.9 7.0 7.0 7.1 7.0 6.9 6.7 6.7 6.7 6.6 6.4 6.2 6.3 6.3 6.0 5.5 5.1 4.7 4.6 4.4 4.3 4.1 4.0 4.1 4.1 4.2 4.3 4.3 4.3 4.5 4.7 4.8 5.1 5.3 5.4
5.5 5.6 6.1 6.2 6.2 6.1 6.1 6.1 6.1 6.3 6.4 6.4 6.4 6.5 6.7 6.8 6.9 6.9 6.9 6.9 6.8 6.7 6.6 6.4 6.4 6.3 6.1 5.9 5.9 5.8 5.5 5.2 4.8 4.4 4.3 4.2 4.3 4.4 4.5 4.5 4.5 4.5 4.5 4.6 4.8 5.0 5.1 5.3 5.4
5.6 5.9 5.9 5.9 6.0 6.2 5.9 6.0 5.9 6.0 6.2 6.3 6.5 6.6 6.6 6.7 6.7 6.8 6.8 6.8 6.8 6.7 6.5 6.3 6.2 6.0 5.9 5.8 5.6 5.5 5.4 5.4 5.0 4.6 4.7 4.6 4.6 4.6 4.7 4.7 4.7 4.8 4.8 4.9 5.1 5.3 5.5 5.5 5.6
6.0 5.9 5.9 6.2 6.2 6.0 5.8 5.7 5.8 6.0 6.1 6.2 6.4 6.5 6.5 6.6 6.7 6.8 6.8 6.6 6.6 6.5 6.4 6.3 6.2 6.1 6.0 6.0 5.8 5.7 5.5 5.4 5.0 4.9 4.9 4.9 4.9 5.0 5.0 4.9 4.9 4.9 5.0 5.1 5.2 5.3 5.3 5.4 5.5
6.1 6.0 6.1 6.1 5.9 5.6 6.1 6.0 6.1 5.9 6.0 6.4 6.4 6.5 6.5 6.5 6.5 6.5 6.4 6.5 6.6 6.5 6.4 6.2 5.9 5.7 5.6 5.4 5.3 5.3 5.1 4.9 4.9 4.9 4.9 5.0 5.1 5.0 5.1 5.2 5.3 5.3 5.3 5.2 5.3 5.3 5.4 5.7 5.7
6.3 6.2 6.1 6.0 5.7 5.0 6.5 6.4 6.1 6.3 6.5 6.6 6.5 6.5 6.4 6.4 6.3 6.3 6.3 6.3 6.0 5.7 5.5 5.4 5.4 5.3 5.3 5.2 5.2 5.2 5.2 5.2 5.2 5.2 5.2 5.2 5.2 5.1 5.0 5.1 5.3 5.4 5.4 5.3 5.3 5.3 5.4 5.6 5.5
6.2 6.2 5.8 5.4 4.9 4.8 6.3 6.4 6.8 6.4 6.6 6.9 6.5 6.4 6.4 6.3 6.1 6.0 5.8 5.6 5.4 5.3 5.3 5.3 5.3 5.3 5.2 5.3 5.3 5.2 5.2 5.2 5.3 5.3 5.2 5.3 5.3 5.3 5.3 5.2 5.1 5.2 5.4 5.6 5.8 5.6 5.4 5.7 5.9
6.3 6.2 6.0 5.5 5.0 5.5 6.2 6.4 7.2 7.1 6.7 6.5 6.2 6.1 6.3 6.1 5.9 5.8 5.7 5.6 5.5 5.4 5.5 5.7 5.7 5.5 5.3 5.2 5.2 5.0 4.8 4.8 4.7 4.8 4.9 4.9 4.9 4.9 5.0 5.1 5.1 5.1 5.2 5.4 5.7 5.8 5.9 5.9 5.9
6.3 6.0 6.1 6.4 6.8 6.2 7.0 7.1 6.9 7.0 6.6 6.2 6.4 6.3 6.4 6.4 6.0 5.7 5.6 5.7 5.6 5.4 5.4 5.5 5.5 5.4 5.1 4.9 4.7 4.6 4.6 4.6 4.8 4.9 4.9 4.9 4.9 4.9 4.9 4.9 5.0 5.0 5.0 4.9 4.8 5.0 5.5 5.8 5.7
6.2 6.3 6.3 6.6 6.0 6.0 6.5 7.4 7.0 6.8 6.8 6.5 6.2 6.4 6.5 6.1 5.5 5.4 5.4 5.2 5.1 5.3 5.3 5.4 5.2 4.8 4.8 4.7 4.5 4.5 4.6 4.7 4.7 4.8 4.9 4.9 5.0 5.0 5.0 5.0 5.1 5.2 5.3 5.2 5.1 5.1 5.0 5.0 5.1
6.1 6.2 6.4 6.5 6.5 5.3 5.1 6.4 6.7 6.9 6.8 6.6 6.3 6.2 5.8 5.4 5.4 5.5 5.4 5.3 5.4 5.2 5.3 5.4 5.0 4.7 4.8 4.8 4.7 4.6 4.6 4.5 4.6 4.5 4.5 4.6 4.7 4.8 5.0 5.1 5.2 5.3 5.4 5.5 5.5 5.7 5.7 5.5 5.3
6.1 6.2 6.3 6.4 6.1 6.2 5.9 6.4 6.7 6.6 6.3 6.0 5.6 5.4 5.3 5.3 5.2 5.1 5.0 5.3 5.3 5.3 5.2 5.1 4.7 4.5 4.4 4.1 4.0 4.0 3.9 4.0 4.1 4.2 4.2 4.4 4.6 4.8 4.9 5.0 5.1 5.1 5.2 5.3 5.4 5.6 5.7 5.6 5.7
Wind_Speed
11 17 3 4 3 4 3 7 2 4 4 2 2 7 6 2 1 3 3 8 13 13 15 16 18 18 15 13 11 10 8 7 6 3 6 10 7 6 5 5 5 7 7 7 5 3 6 4 5
8 6 5 2 4 2 5 4 5 2 6 4 3 5 1 1 3 5 3 6 12 14 15 15 19 18 16 13 12 10 9 7 7 7 6 9 8 7 6 6 5 3 6 6 6 3 5 4 2
6 4 3 2 3 5 4 2 5 3 7 2 3 4 4 3 3 8 4 8 12 11 17 17 19 18 16 14 13 10 9 6 6 8 4 7 8 6 5 5 5 5 5 5 5 3 4 3 3
3 5 4 2 5 7 5 4 5 3 4 1 3 4 3 1 6 8 8 8 11 7 16 21 20 19 17 15 12 10 9 7 5 7 6 3 8 7 4 5 4 4 4 3 3 4 2 4 3
4 3 2 2 6 7 4 6 11 5 4 3 2 4 3 2 7 10 8 7 10 7 14 20 21 20 18 16 12 10 10 8 8 7 5 3 6 5 6 4 4 5 4 4 4 4 4 3 3
4 3 4 3 6 8 5 9 14 6 3 3 5 7 4 5 7 8 8 8 10 10 12 16 18 17 17 15 14 12 11 11 10 8 6 4 4 4 7 6 8 8 6 5 4 5 6 6 5
4 3 4 4 5 9 7 9 5 9 1 4 4 5 2 4 7 8 8 7 8 11 10 13 15 14 15 13 14 12 11 10 7 9 8 6 4 4 6 6 6 8 7 6 5 6 7 9 9
3 3 3 3 5 7 7 9 3 5 3 2 2 5 5 6 9 8 6 7 7 10 11 9 14 15 13 13 16 14 12 11 12 14 11 8 8 8 8 7 8 8 8 7 7 8 9 10 11
2 3 3 5 3 4 9 9 9 3 3 3 5 3 2 12 9 6 4 4 5 5 9 9 10 13 15 15 14 16 15 13 13 15 14 12 10 11 12 10 10 10 9 8 9 10 10 11 10
3 4 6 6 6 9 8 5 5 5 6 2 4 4 6 9 7 8 7 8 7 8 7 10 11 10 13 13 15 17 15 14 15 15 15 14 14 13 12 14 15 12 11 11 10 10 11 11 12
5 5 7 16 11 8 7 8 5 7 3 5 7 10 8 5 8 8 8 8 9 8 5 7 9 11 10 7 12 10 12 13 13 15 16 16 12 11 13 13 12 12 12 11 13 13 13 12 13
5 8 7 15 12 5 8 6 10 3 7 6 3 12 8 9 10 10 10 10 8 7 8 8 8 8 7 9 8 10 7 10 9 12 16 11 7 6 6 8 11 10 13 11 13 10 13 14 16
5 11 9 12 10 7 8 6 6 10 13 6 5 10 10 9 10 9 9 8 7 8 8 9 8 8 7 7 6 6 6 8 12 13 15 15 7 5 7 7 10 12 14 11 6 8 7 7 10
5 7 7 6 9 7 6 8 2 8 8 5 7 9 10 11 13 7 8 9 10 8 11 9 10 8 8 7 7 6 7 10 12 13 15 19 15 7 6 6 7 7 13 13 10 6 7 7 6
8 7 8 7 7 6 1 6 11 14 3 6 5 8 9 13 10 13 14 14 14 10 9 12 12 11 9 8 8 7 7 10 6 9 16 17 16 11 7 7 7 8 12 12 9 5 5 5 5
4 2 2 7 6 8 7 7 16 13 9 9 8 7 7 9 7 6 7 7 8 6 10 11 12 13 12 9 7 6 7 7 7 11 13 16 15 15 8 8 9 10 9 7 6 6 6 6 7
2 4 6 8 9 7 6 6 8 8 4 6 7 7 7 8 10 9 9 9 6 7 8 9 11 14 15 13 9 8 10 7 7 9 11 15 15 16 10 9 8 7 5 7 7 7 7 7 7
6 4 6 7 3 6 5 8 11 6 2 5 4 7 8 8 6 5 8 8 8 8 5 5 7 11 13 9 7 4 4 7 5 6 7 10 13 13 8 8 8 4 5 7 3 8 5 8 9
5 4 7 3 1 4 6 7 12 5 7 9 7 8 8 8 5 8 10 8 8 8 9 8 5 6 6 3 5 4 8 3 3 5 7 7 9 9 7 8 6 6 9 11 9 8 9 10 4
9 7 6 3 5 4 4 7 3 4 5 7 8 8 8 7 9 8 8 8 9 7 8 8 7 7 3 3 3 3 3 3 2 4 5 8 8 9 8 11 11 11 9 11 10 11 10 10 5
7 2 1 3 5 3 2 7 3 5 6 6 6 6 6 7 6 6 8 8 8 10 9 8 8 7 7 2 2 2 3 1 1 3 3 6 8 10 11 13 10 10 9 11 11 10 13 11 6
4 4 3 3 5 3 5 4 3 6 5 5 7 7 6 6 5 5 7 8 9 8 8 9 8 8 8 8 6 5 2 3 3 3 3 5 7 10 12 13 11 10 8 11 11 9 11 12 13
4 1 2 1 1 3 3 3 6 6 5 6 7 7 6 6 6 7 7 7 6 7 8 8 9 10 9 9 7 4 4 2 2 3 6 6 6 7 9 10 11 10 9 10 12 13 12 11 12
5 1 2 3 3 1 6 6 4 9 9 6 5 7 8 7 7 7 6 7 6 7 7 7 8 8 8 8 8 8 8 7 5 5 4 4 4 5 6 6 8 10 11 11 12 14 14 12 12
4 5 1 2 1 5 3 2 8 12 12 12 10 9 7 7 7 7 7 7 7 8 8 6 8 7 7 8 8 8 7 7 6 6 4 6 4 3 6 6 5 6 10 11 11 12 13 13 12
5 7 4 3 3 4 2 5 6 12 10 10 9 9 8 8 7 6 5 5 5 6 6 6 7 7 7 7 8 7 7 4 4 4 4 4 4 5 7 7 7 7 7 8 10 9 11 13 12
4 4 4 2 2 2 3 4 5 7 9 8 9 8 8 8 7 7 6 3 1 3 5 5 7 7 8 8 8 8 8 8 7 7 5 4 5 8 9 8 9 10 10 8 7 6 9 11 13
3 1 2 2 3 2 5 3 3 6 8 7 8 9 7 7 7 7 5 3 1 2 5 8 8 8 7 8 7 7 7 7 7 7 8 7 9 8 9 8 8 9 9 10 10 9 10 10 9
2 1 1 2 4 4 2 5 5 7 8 10 8 8 9 7 7 6 4 2 2 6 7 7 8 9 11 10 9 9 8 8 9 9 9 10 10 10 11 11 11 11 12 11 11 12 13 12 12
2 4 5 4 1 1 4 5 3 5 9 9 9 8 6 8 7 6 3 5 7 7 7 7 9 9 7 7 7 8 7 7 8 9 9 10 10 10 11 12 11 11 12 12 13 14 14 14 14
Wind_Direction
319 317 332 33 65 71 262 255 108 348 156 181 277 83 135 95 137 221 238 106 125 140 152 160 162 160 156 153 151 144 154 174 165 150 171 134 125 116 110 107 101 82 87 79 77 23 95 94 87
310 330 33 68 92 96 266 291 331 259 246 166 75 99 82 130 118 138 109 165 147 145 150 155 161 160 159 157 157 153 166 170 166 184 156 135 129 106 108 88 99 102 92 89 93 91 121 103 132
312 158 73 100 176 196 223 128 16 324 274 201 93 50 112 150 54 150 225 171 136 147 152 157 159 162 165 164 162 160 176 181 197 185 153 137 137 132 127 118 125 106 101 98 104 84 135 116 125
340 357 13 87 258 269 252 284 202 280 261 290 103 92 61 222 152 160 160 146 134 145 152 158 160 165 165 168 162 165 178 184 178 119 111 163 161 129 135 138 143 135 138 130 148 151 176 177 205
27 67 21 306 278 264 269 260 324 258 226 198 121 165 130 38 117 128 149 145 128 140 144 156 162 167 168 167 167 175 184 188 171 140 110 108 140 151 172 158 160 171 165 174 186 189 198 208 210
359 80 23 301 295 299 278 215 251 234 150 195 151 118 195 151 129 158 159 159 141 145 145 152 160 163 168 170 171 184 194 196 202 175 188 187 202 166 177 207 213 183 192 201 207 208 215 223 224
124 81 239 288 285 302 289 221 218 223 80 245 184 103 209 207 182 160 167 167 158 145 145 148 153 164 169 176 175 186 198 209 202 184 198 195 175 182 177 211 200 194 198 210 217 222 219 220 221
116 101 295 269 267 273 301 344 233 69 77 296 53 167 211 204 176 156 166 168 155 154 156 162 162 167 175 183 180 191 200 195 210 175 196 210 187 191 194 186 186 191 201 214 227 231 229 223 225
71 63 258 255 275 310 325 9 338 319 66 39 17 127 190 133 142 143 160 165 173 182 167 171 169 171 180 189 191 192 205 216 200 184 192 191 197 201 201 204 199 196 206 223 234 235 232 226 225
128 146 233 237 305 316 297 1 302 340 345 320 62 55 118 134 152 166 184 189 198 200 201 175 176 179 182 188 191 193 200 209 196 192 193 201 213 218 215 216 197 203 216 227 237 237 228 221 228
211 203 240 274 278 277 293 317 318 330 306 249 218 186 167 169 172 183 207 206 206 205 190 186 173 187 182 190 183 187 189 191 198 198 201 210 222 224 212 190 199 207 219 224 234 235 227 223 231
237 251 247 276 282 274 297 307 316 265 245 261 180 181 166 171 195 202 208 217 209 205 199 196 189 183 188 162 175 183 190 194 199 210 208 202 215 202 192 191 199 203 217 219 224 224 227 226 232
249 255 257 256 278 281 267 285 258 286 280 273 138 149 184 192 209 218 216 226 214 212 204 202 194 188 187 182 177 186 198 194 202 207 210 199 207 205 203 203 201 210 213 215 215 219 224 227 230
259 277 279 286 285 275 255 262 46 283 272 314 178 192 196 203 211 214 218 224 224 206 208 201 198 189 185 189 188 192 189 200 199 207 209 204 203 202 203 209 218 219 211 208 213 213 220 223 216
254 274 305 275 273 252 82 315 260 260 261 266 272 219 216 213 208 213 213 214 214 209 195 196 193 191 188 195 192 198 199 199 204 208 213 211 208 204 201 213 222 222 213 214 218 222 222 233 232
311 340 310 261 240 253 157 262 269 274 179 226 251 280 249 258 255 299 301 254 228 199 193 191 192 193 195 193 194 191 202 205 207 209 211 214 215 209 215 220 227 217 213 213 218 222 231 226 225
317 248 227 306 211 206 176 259 262 316 292 267 279 314 40 63 42 27 35 25 336 251 215 197 190 190 196 204 199 195 201 207 210 207 213 219 215 215 216 228 238 215 218 223 222 228 225 234 238
223 235 262 232 265 139 187 259 276 297 347 270 79 91 74 63 41 45 36 20 16 21 9 269 215 194 196 195 199 206 203 216 199 217 222 216 225 224 222 241 249 216 239 245 254 244 231 237 237
283 283 264 258 249 119 226 258 270 257 83 75 72 73 70 61 17 33 29 17 14 22 27 19 8 253 200 153 181 201 214 199 210 218 228 222 225 219 213 228 222 206 221 229 223 229 233 243 213
240 269 306 288 176 128 242 273 278 130 86 129 107 80 76 57 39 26 18 11 19 17 14 12 12 10 217 230 202 164 170 210 202 213 227 220 221 218 217 224 230 221 229 235 227 222 238 246 204
210 196 284 278 347 301 59 311 188 47 109 92 73 95 75 87 72 40 26 20 15 19 3 4 4 8 28 80 92 43 68 22 229 241 238 232 226 229 226 234 233 232 223 237 234 230 230 244 235
182 203 167 336 52 242 131 263 273 169 130 122 129 110 114 89 60 53 40 29 21 8 13 27 26 24 29 38 40 23 339 300 295 265 261 263 234 237 233 235 230 225 222 234 238 234 232 230 241
198 132 210 153 68 12 267 101 246 151 179 183 169 147 138 114 85 64 54 40 15 17 25 26 27 26 21 29 40 52 25 295 303 310 315 303 284 255 250 241 234 226 226 235 238 242 234 235 237
135 108 350 44 102 327 236 149 243 193 180 186 186 165 141 113 74 61 56 43 26 17 30 38 41 29 26 30 26 33 29 3 6 351 345 329 317 314 309 269 243 238 237 236 240 246 251 239 240
89 69 359 16 28 225 228 85 239 208 184 173 163 162 139 113 79 58 45 37 29 22 16 20 35 32 27 30 28 29 26 20 7 350 340 345 336 329 331 340 322 280 258 252 252 252 252 250 248
165 165 167 175 196 261 21 233 256 192 163 136 146 136 126 108 106 93 76 57 29 13 7 20 24 23 21 22 13 11 13 9 355 350 344 349 343 327 330 337 335 327 315 284 265 255 255 257 259
206 181 186 140 317 59 231 271 19 53 118 128 140 131 139 138 139 134 110 104 61 358 359 2 17 20 21 18 13 10 6 10 4 358 6 347 348 348 347 338 334 330 324 317 308 299 286 283 281
141 187 87 354 188 263 294 265 239 179 169 157 150 163 162 153 152 141 142 157 201 13 11 26 27 30 21 19 12 7 1 6 0 0 358 350 345 338 335 328 324 317 314 312 310 304 296 295 296
67 329 202 141 144 167 276 279 287 175 184 176 165 170 176 162 151 148 161 204 42 54 55 45 36 32 23 13 6 5 359 1 3 1 353 347 339 333 329 323 317 316 314 310 307 302 297 292 287
196 197 164 128 272 127 148 273 270 136 141 140 182 179 151 161 157 153 143 66 59 70 49 43 40 32 17 360 0 356 353 357 357 351 345 338 330 324 317 314 309 310 312 311 308 305 301 299 296